This is the latest recevied weather packets stored in our database for station/object DO1BDB-12. If no packets are shown the sender has not sent any weather packets the latest 10 day(s).
| Time | Temp. | Humidity | Pressure | Rain* | Wind** | Luminosity | Snow |
|---|---|---|---|---|---|---|---|
| 1777895261 | 22.22° C | 45% | 101.2 hPa | - | - | - | - |
| 1777895195 | 21.67° C | 45% | 101.2 hPa | - | - | - | - |
| 1777895129 | 21.11° C | 47% | 101.2 hPa | - | - | - | - |
| 1777895063 | 21.11° C | 47% | 101.2 hPa | - | - | - | - |
| 1777894997 | 21.11° C | 48% | 101.2 hPa | - | - | - | - |
| 1777894931 | 21.67° C | 48% | 101.2 hPa | - | - | - | - |
| 1777894866 | 21.11° C | 48% | 101.2 hPa | - | - | - | - |
| 1777894800 | 21.11° C | 47% | 101.2 hPa | - | - | - | - |
| 1777894734 | 20.56° C | 49% | 101.2 hPa | - | - | - | - |
| 1777894668 | 20° C | 48% | 101.2 hPa | - | - | - | - |
| 1777894602 | 21.11° C | 49% | 101.2 hPa | - | - | - | - |
| 1777894536 | 22.22° C | 47% | 101.2 hPa | - | - | - | - |
| 1777894471 | 21.67° C | 47% | 101.2 hPa | - | - | - | - |
| 1777894405 | 21.11° C | 48% | 101.2 hPa | - | - | - | - |
| 1777894339 | 22.78° C | 45% | 101.2 hPa | - | - | - | - |
| 1777894273 | 22.78° C | 44% | 101.2 hPa | - | - | - | - |
| 1777894207 | 22.22° C | 46% | 101.2 hPa | - | - | - | - |
| 1777894142 | 21.67° C | 47% | 101.2 hPa | - | - | - | - |
| 1777894075 | 21.67° C | 47% | 101.2 hPa | - | - | - | - |
| 1777894010 | 22.22° C | 48% | 101.2 hPa | - | - | - | - |
| 1777893944 | 22.78° C | 45% | 101.2 hPa | - | - | - | - |
| 1777893878 | 23.33° C | 47% | 101.2 hPa | - | - | - | - |
| 1777893812 | 23.33° C | 45% | 101.2 hPa | - | - | - | - |
| 1777893746 | 23.89° C | 45% | 101.2 hPa | - | - | - | - |
| 1777893680 | 23.89° C | 45% | 101.2 hPa | - | - | - | - |
* Rain since midnight (hover to see other rain measurements)
** Current wind speed in m/s (hover to see current wind gust speed)